Jamestown, NY

5:25 AM EST on December 09, 2019 (GMT -0500)
Chautauqua County-Jamestown

Weather History for KJHW - October, 2019

Change the Weather History Date:

Wednesday, October 9, 2019

  Actual Average Record
Temperature  
Mean Temperature 54 °F -  
Max Temperature 63 °F 60 °F 80 °F (2018)
Min Temperature 45 °F 37 °F 25 °F (1987)
Degree Days  
Heating Degree Days 11    
Growing Degree Days 4 (Base 50)    
Moisture  
Dew Point 39 °F    
Average Humidity 63    
Maximum Humidity 86    
Minimum Humidity 37    
Precipitation  
Precipitation 0.00 in - - ()
Sea Level Pressure  
Sea Level Pressure 30.31 in    
Wind  
Wind Speed 4 mph (ESE)    
Max Wind Speed 9 mph    
Max Gust Speed -    
Visibility 10 miles    
Events      
Averages and records for this station are not official NWS values.
T = Trace of Precipitation, MM = Missing Value Source: NWS Daily Summary

Daily Weather History Graph

Daily Weather History Graph

Search for Another Location

Airport or City:

Astronomy

Oct. 09, 2019 Rise Set
Actual Time 7:22 AM EDT 6:45 PM EDT
Civil Twilight 6:54 AM EDT 7:13 PM EDT
Nautical Twilight 6:22 AM EDT 7:45 PM EDT
Astronomical Twilight 5:49 AM EDT 8:18 PM EDT
Moon 5:21 PM EDT 3:01 AM EDT
Length of Visible Light 12h 18m
Length of Day
11h 22m
Waxing Gibbous, 85% of the Moon is Illuminated
Oct 9
Waxing Gibbous
Oct 13
Full
Oct 21
Last Quarter
Oct 27
New
Nov 4
First Quarter

Hourly Weather History & Observations

Time (EDT) Temp. Windchill Dew Point Humidity Pressure Visibility Wind Dir Wind Speed Gust Speed Precip Events Conditions
12:56 AM 48.0 °F - 42.1 °F 80% 30.30 in 10.0 mi East 5.8 mph - N/A   Clear
1:56 AM 46.0 °F 44.8 °F 42.1 °F 86% 30.31 in 10.0 mi ESE 3.5 mph - N/A   Clear
2:56 AM 46.0 °F 44.8 °F 41.0 °F 83% 30.30 in 10.0 mi SE 3.5 mph - N/A   Clear
3:56 AM 45.0 °F - 41.0 °F 86% 30.30 in 10.0 mi Calm Calm - N/A   Clear
4:56 AM 45.0 °F - 39.9 °F 82% 30.30 in 10.0 mi Calm Calm - N/A   Clear
5:56 AM 45.0 °F - 39.9 °F 82% 30.32 in 10.0 mi Calm Calm - N/A   Clear
6:56 AM 46.0 °F - 39.9 °F 79% 30.33 in 10.0 mi Calm Calm - N/A   Clear
7:56 AM 46.0 °F 43.9 °F 39.0 °F 76% 30.35 in 10.0 mi SE 4.6 mph - N/A   Clear
8:56 AM 46.9 °F - 41.0 °F 80% 30.36 in 10.0 mi SSE 3.5 mph - N/A   Clear
9:56 AM 51.1 °F - 42.1 °F 71% 30.35 in 10.0 mi East 8.1 mph - N/A   Clear
10:56 AM 54.0 °F - 43.0 °F 66% 30.36 in 10.0 mi South 4.6 mph - N/A   Clear
11:56 AM 57.0 °F - 42.1 °F 57% 30.34 in 10.0 mi Variable 5.8 mph - N/A   Clear
12:56 PM 59.0 °F - 39.9 °F 49% 30.32 in 10.0 mi Variable 3.5 mph - N/A   Clear
1:56 PM 61.0 °F - 37.9 °F 42% 30.30 in 10.0 mi East 6.9 mph - N/A   Clear
2:56 PM 62.1 °F - 36.0 °F 38% 30.28 in 10.0 mi East 9.2 mph - N/A   Clear
3:56 PM 63.0 °F - 37.0 °F 38% 30.27 in 10.0 mi ESE 6.9 mph - N/A   Clear
4:56 PM 62.1 °F - 35.1 °F 37% 30.26 in 10.0 mi East 6.9 mph - N/A   Clear
5:56 PM 61.0 °F - 37.0 °F 41% 30.27 in 10.0 mi ESE 4.6 mph - N/A   Clear
6:56 PM 57.9 °F - 37.0 °F 46% 30.28 in 10.0 mi NNE 4.6 mph - N/A   Clear
7:56 PM 55.9 °F - 35.1 °F 45% 30.28 in 10.0 mi NE 8.1 mph - N/A   Clear
8:56 PM 54.0 °F - 37.0 °F 53% 30.28 in 10.0 mi NE 6.9 mph - N/A   Clear
9:56 PM 52.0 °F - 39.0 °F 61% 30.30 in 10.0 mi East 5.8 mph - N/A   Clear
10:56 PM 50.0 °F - 39.0 °F 66% 30.31 in 10.0 mi SE 3.5 mph - N/A   Clear
11:56 PM 50.0 °F - 39.0 °F 66% 30.30 in 10.0 mi SE 4.6 mph - N/A   Clear